Time,TemperatureF,DewpointF,PressureIn,WindDirection,WindDirectionDegrees,WindSpeedMPH,WindSpeedGustMPH,Humidity,HourlyPrecipIn,Conditions,Clouds,dailyrainin,SoftwareType,DateUTC
2013-03-02 07:25:00,27.0,23.4,30.19,North,351,4.0,6.0,86,0.00,,,0.00,Wunderground v.1.15,2013-03-02 13:25:00,
2013-03-02 07:28:00,26.9,23.3,30.19,North,355,5.0,6.0,86,0.00,,,0.00,Wunderground v.1.15,2013-03-02 13:28:00,
2013-03-02 07:34:00,26.9,23.3,30.19,NNW,331,4.0,5.0,86,0.00,,,0.00,Wunderground v.1.15,2013-03-02 13:34:00,
2013-03-02 07:36:00,26.9,23.3,30.19,NNW,344,4.0,5.0,86,0.00,,,0.00,Wunderground v.1.15,2013-03-02 13:36:00,
2013-03-02 07:41:00,26.8,22.9,30.19,North,360,5.0,8.0,85,0.00,,,0.00,Wunderground v.1.15,2013-03-02 13:41:00,
2013-03-02 07:47:00,26.6,22.7,30.20,NW,325,6.0,7.0,85,0.00,,,0.00,Wunderground v.1.15,2013-03-02 13:47:00,
2013-03-02 07:52:00,26.6,22.7,30.20,NW,323,6.0,8.0,85,0.00,,,0.00,Wunderground v.1.15,2013-03-02 13:52:00,
2013-03-02 07:58:00,26.6,22.7,30.20,NW,321,6.0,7.0,85,0.00,,,0.00,Wunderground v.1.15,2013-03-02 13:58:00,
2013-03-02 08:03:00,26.7,22.8,30.20,NNE,19,6.0,10.0,85,0.00,,,0.00,Wunderground v.1.15,2013-03-02 14:03:00,
2013-03-02 08:08:00,26.7,22.8,30.20,NNW,334,6.0,10.0,85,0.00,,,0.00,Wunderground v.1.15,2013-03-02 14:08:00,
2013-03-02 08:14:00,26.8,23.2,30.20,NNW,330,6.0,8.0,86,0.00,,,0.00,Wunderground v.1.15,2013-03-02 14:14:00,
2013-03-02 08:20:00,26.8,22.9,30.20,NW,316,6.0,7.0,85,0.00,,,0.00,Wunderground v.1.15,2013-03-02 14:20:00,
2013-03-02 08:26:00,26.9,23.0,30.20,North,5,6.0,9.0,85,0.00,,,0.00,Wunderground v.1.15,2013-03-02 14:26:00,
2013-03-02 08:31:00,26.9,23.0,30.19,NW,318,6.0,6.0,85,0.00,,,0.00,Wunderground v.1.15,2013-03-02 14:31:00,
2013-03-02 08:37:00,26.9,22.7,30.19,NNW,342,6.0,8.0,84,0.00,,,0.00,Wunderground v.1.15,2013-03-02 14:37:00,
2013-03-02 08:43:00,26.9,22.4,30.19,NNW,330,7.0,8.0,83,0.00,,,0.00,Wunderground v.1.15,2013-03-02 14:43:00,
2013-03-02 08:48:00,27.0,22.8,30.19,North,355,7.0,8.0,84,0.00,,,0.00,Wunderground v.1.15,2013-03-02 14:48:00,
2013-03-02 08:54:00,27.3,22.8,30.19,NW,306,6.0,7.0,83,0.00,,,0.00,Wunderground v.1.15,2013-03-02 14:54:00,
2013-03-02 09:00:00,27.5,22.7,30.19,North,355,5.0,6.0,82,0.00,,,0.00,Wunderground v.1.15,2013-03-02 15:00:00,
2013-03-02 09:05:00,27.7,22.9,30.19,North,360,5.0,8.0,82,0.00,,,0.00,Wunderground v.1.15,2013-03-02 15:05:00,
2013-03-02 09:10:00,28.0,23.2,30.19,NW,317,5.0,6.0,82,0.00,,,0.00,Wunderground v.1.15,2013-03-02 15:10:00,
2013-03-02 09:15:00,28.2,23.4,30.19,NW,325,5.0,6.0,82,0.00,,,0.00,Wunderground v.1.15,2013-03-02 15:15:00,
2013-03-02 09:21:00,28.3,23.5,30.19,NW,325,5.0,5.0,82,0.00,,,0.00,Wunderground v.1.15,2013-03-02 15:21:00,
2013-03-02 09:27:00,28.3,23.2,30.19,NNW,343,5.0,5.0,81,0.00,,,0.00,Wunderground v.1.15,2013-03-02 15:27:00,
2013-03-02 09:32:00,28.5,23.7,30.19,North,355,4.0,8.0,82,0.00,,,0.00,Wunderground v.1.15,2013-03-02 15:32:00,
2013-03-02 09:38:00,28.7,23.6,30.19,NW,322,4.0,8.0,81,0.00,,,0.00,Wunderground v.1.15,2013-03-02 15:38:00,
2013-03-02 09:44:00,28.7,23.6,30.19,NNW,346,5.0,7.0,81,0.00,,,0.00,Wunderground v.1.15,2013-03-02 15:44:00,
2013-03-02 09:49:00,28.7,23.3,30.19,North,360,5.0,8.0,80,0.00,,,0.00,Wunderground v.1.15,2013-03-02 15:49:00,
2013-03-02 09:55:00,28.7,23.0,30.19,NNW,331,5.0,6.0,79,0.00,,,0.00,Wunderground v.1.15,2013-03-02 15:55:00,
2013-03-02 10:00:00,28.8,23.1,30.20,NNW,332,5.0,5.0,79,0.00,,,0.00,Wunderground v.1.15,2013-03-02 16:00:00,
2013-03-02 10:05:00,28.8,22.5,30.20,NW,325,6.0,9.0,77,0.00,,,0.00,Wunderground v.1.15,2013-03-02 16:05:00,
2013-03-02 10:11:00,28.8,22.8,30.20,North,349,6.0,6.0,78,0.00,,,0.00,Wunderground v.1.15,2013-03-02 16:11:00,
2013-03-02 10:16:00,29.0,23.0,30.20,NNW,346,6.0,9.0,78,0.00,,,0.00,Wunderground v.1.15,2013-03-02 16:16:00,
2013-03-02 10:22:00,29.0,22.7,30.20,NW,312,5.0,6.0,77,0.00,,,0.00,Wunderground v.1.15,2013-03-02 16:22:00,
2013-03-02 10:28:00,29.0,22.4,30.20,North,355,6.0,10.0,76,0.00,,,0.00,Wunderground v.1.15,2013-03-02 16:28:00,
2013-03-02 10:33:00,29.0,22.1,30.20,NNE,22,7.0,9.0,75,0.00,,,0.00,Wunderground v.1.15,2013-03-02 16:33:00,
2013-03-02 10:39:00,29.2,23.2,30.20,NNW,329,6.0,11.0,78,0.00,,,0.00,Wunderground v.1.15,2013-03-02 16:39:00,
2013-03-02 10:44:00,29.2,23.2,30.20,NNW,329,5.0,6.0,78,0.00,,,0.00,Wunderground v.1.15,2013-03-02 16:44:00,
2013-03-02 10:50:00,29.1,22.5,30.20,NW,305,6.0,6.0,76,0.00,,,0.00,Wunderground v.1.15,2013-03-02 16:50:00,
2013-03-02 10:55:00,29.1,22.5,30.20,WNW,300,6.0,6.0,76,0.00,,,0.00,Wunderground v.1.15,2013-03-02 16:55:00,
2013-03-02 11:01:00,29.1,22.8,30.20,NW,324,6.0,7.0,77,0.00,,,0.00,Wunderground v.1.15,2013-03-02 17:01:00,
2013-03-02 11:06:00,29.0,22.4,30.20,WNW,300,6.0,8.0,76,0.00,,,0.00,Wunderground v.1.15,2013-03-02 17:06:00,
2013-03-02 11:12:00,29.1,22.5,30.20,NW,323,6.0,7.0,76,0.00,,,0.00,Wunderground v.1.15,2013-03-02 17:12:00,
2013-03-02 11:18:00,29.4,22.1,30.20,NNW,344,6.0,11.0,74,0.00,,,0.00,Wunderground v.1.15,2013-03-02 17:18:00,
2013-03-02 11:23:00,29.4,21.8,30.20,NNW,336,7.0,11.0,73,0.00,,,0.00,Wunderground v.1.15,2013-03-02 17:23:00,
2013-03-02 11:29:00,29.6,22.0,30.20,NW,326,7.0,11.0,73,0.00,,,0.00,Wunderground v.1.15,2013-03-02 17:29:00,
2013-03-02 11:35:00,29.7,22.7,30.20,NW,311,6.0,8.0,75,0.00,,,0.00,Wunderground v.1.15,2013-03-02 17:35:00,
2013-03-02 11:40:00,30.0,22.4,30.19,NNW,348,5.0,10.0,73,0.00,,,0.00,Wunderground v.1.15,2013-03-02 17:40:00,
2013-03-02 11:46:00,30.1,21.5,30.19,North,355,6.0,10.0,70,0.00,,,0.00,Wunderground v.1.15,2013-03-02 17:46:00,
2013-03-02 11:51:00,30.1,21.8,30.19,North,5,8.0,8.0,71,0.00,,,0.00,Wunderground v.1.15,2013-03-02 17:51:00,
2013-03-02 11:57:00,30.4,21.8,30.19,North,355,8.0,11.0,70,0.00,,,0.00,Wunderground v.1.15,2013-03-02 17:57:00,
2013-03-02 12:02:00,30.3,21.0,30.19,NNW,348,8.0,8.0,68,0.00,,,0.00,Wunderground v.1.15,2013-03-02 18:02:00,
2013-03-02 12:07:00,30.3,21.0,30.18,North,350,7.0,8.0,68,0.00,,,0.00,Wunderground v.1.15,2013-03-02 18:07:00,
2013-03-02 12:13:00,30.7,21.7,30.18,NW,310,7.0,8.0,69,0.00,,,0.00,Wunderground v.1.15,2013-03-02 18:13:00,
2013-03-02 12:18:00,31.1,22.1,30.18,North,5,6.0,8.0,69,0.00,,,0.00,Wunderground v.1.15,2013-03-02 18:18:00,
2013-03-02 12:24:00,31.2,22.5,30.18,North,360,5.0,6.0,70,0.00,,,0.00,Wunderground v.1.15,2013-03-02 18:24:00,
2013-03-02 12:30:00,31.2,21.5,30.18,NNW,344,6.0,12.0,67,0.00,,,0.00,Wunderground v.1.15,2013-03-02 18:30:00,
2013-03-02 12:36:00,31.1,21.8,30.17,North,350,8.0,12.0,68,0.00,,,0.00,Wunderground v.1.15,2013-03-02 18:36:00,
2013-03-02 12:41:00,31.3,22.3,30.17,NW,310,7.0,7.0,69,0.00,,,0.00,Wunderground v.1.15,2013-03-02 18:41:00,
2013-03-02 12:47:00,31.3,22.0,30.17,North,355,7.0,7.0,68,0.00,,,0.00,Wunderground v.1.15,2013-03-02 18:47:00,
2013-03-02 12:53:00,31.2,21.5,30.17,NW,313,7.0,7.0,67,0.00,,,0.00,Wunderground v.1.15,2013-03-02 18:53:00,
2013-03-02 12:58:00,31.2,21.9,30.17,North,350,6.0,9.0,68,0.00,,,0.00,Wunderground v.1.15,2013-03-02 18:58:00,
2013-03-02 13:04:00,31.2,22.5,30.17,North,350,6.0,7.0,70,0.00,,,0.00,Wunderground v.1.15,2013-03-02 19:04:00,
2013-03-02 13:09:00,31.3,22.6,30.17,WNW,299,5.0,8.0,70,0.00,,,0.00,Wunderground v.1.15,2013-03-02 19:09:00,
2013-03-02 13:15:00,31.2,22.5,30.16,WNW,302,6.0,9.0,70,0.00,,,0.00,Wunderground v.1.15,2013-03-02 19:15:00,
2013-03-02 13:20:00,31.1,22.5,30.17,NNE,25,6.0,6.0,70,0.00,,,0.00,Wunderground v.1.15,2013-03-02 19:20:00,
2013-03-02 13:26:00,31.2,21.5,30.17,North,5,6.0,8.0,67,0.00,,,0.00,Wunderground v.1.15,2013-03-02 19:26:00,
2013-03-02 13:32:00,31.4,21.7,30.17,North,5,6.0,10.0,67,0.00,,,0.00,Wunderground v.1.15,2013-03-02 19:32:00,
2013-03-02 13:38:00,31.5,22.1,30.16,WNW,292,6.0,10.0,68,0.00,,,0.00,Wunderground v.1.15,2013-03-02 19:38:00,
2013-03-02 13:44:00,31.6,22.6,30.17,NW,311,5.0,7.0,69,0.00,,,0.00,Wunderground v.1.15,2013-03-02 19:44:00,
2013-03-02 13:50:00,31.6,22.2,30.17,NW,315,5.0,11.0,68,0.00,,,0.00,Wunderground v.1.15,2013-03-02 19:50:00,
2013-03-02 13:55:00,31.3,22.0,30.17,NW,325,6.0,11.0,68,0.00,,,0.00,Wunderground v.1.15,2013-03-02 19:55:00,
2013-03-02 14:01:00,31.2,22.2,30.17,NW,315,6.0,6.0,69,0.00,,,0.00,Wunderground v.1.15,2013-03-02 20:01:00,
2013-03-02 14:07:00,31.1,22.5,30.17,NW,319,6.0,10.0,70,0.00,,,0.00,Wunderground v.1.15,2013-03-02 20:07:00,
2013-03-02 14:13:00,31.2,22.9,30.17,NW,321,6.0,6.0,71,0.00,,,0.00,Wunderground v.1.15,2013-03-02 20:13:00,
2013-03-02 14:19:00,31.2,21.5,30.16,NNW,341,6.0,12.0,67,0.00,,,0.00,Wunderground v.1.15,2013-03-02 20:19:00,
2013-03-02 14:25:00,31.1,21.8,30.16,NNW,328,7.0,8.0,68,0.00,,,0.00,Wunderground v.1.15,2013-03-02 20:25:00,
2013-03-02 14:30:00,31.1,22.1,30.16,NW,322,6.0,6.0,69,0.00,,,0.00,Wunderground v.1.15,2013-03-02 20:30:00,
2013-03-02 14:36:00,31.1,21.4,30.16,WNW,301,6.0,6.0,67,0.00,,,0.00,Wunderground v.1.15,2013-03-02 20:36:00,
2013-03-02 14:42:00,31.1,22.8,30.16,NW,315,6.0,7.0,71,0.00,,,0.00,Wunderground v.1.15,2013-03-02 20:42:00,
2013-03-02 14:48:00,31.1,22.5,30.16,NNW,343,6.0,7.0,70,0.00,,,0.00,Wunderground v.1.15,2013-03-02 20:48:00,
2013-03-02 14:53:00,31.1,22.8,30.16,NW,311,5.0,6.0,71,0.00,,,0.00,Wunderground v.1.15,2013-03-02 20:53:00,
2013-03-02 14:59:00,30.9,22.3,30.16,NW,316,6.0,6.0,70,0.00,,,0.00,Wunderground v.1.15,2013-03-02 20:59:00,
2013-03-02 15:05:00,30.8,22.2,30.17,NW,311,6.0,6.0,70,0.00,,,0.00,Wunderground v.1.15,2013-03-02 21:05:00,
2013-03-02 15:11:00,30.6,22.3,30.17,WNW,302,6.0,6.0,71,0.00,,,0.00,Wunderground v.1.15,2013-03-02 21:11:00,
2013-03-02 15:17:00,30.4,22.8,30.17,NNW,339,6.0,7.0,73,0.00,,,0.00,Wunderground v.1.15,2013-03-02 21:17:00,
2013-03-02 15:22:00,30.6,22.6,30.17,NW,310,5.0,7.0,72,0.00,,,0.00,Wunderground v.1.15,2013-03-02 21:22:00,
2013-03-02 15:28:00,30.6,21.3,30.17,NW,324,6.0,8.0,68,0.00,,,0.00,Wunderground v.1.15,2013-03-02 21:28:00,
2013-03-02 15:33:00,30.5,21.9,30.17,NW,323,6.0,6.0,70,0.00,,,0.00,Wunderground v.1.15,2013-03-02 21:33:00,
2013-03-02 15:39:00,30.6,22.3,30.17,NW,311,5.0,8.0,71,0.00,,,0.00,Wunderground v.1.15,2013-03-02 21:39:00,
2013-03-02 15:44:00,30.8,22.8,30.17,NNW,346,5.0,6.0,72,0.00,,,0.00,Wunderground v.1.15,2013-03-02 21:44:00,
2013-03-02 15:50:00,31.1,22.8,30.17,NW,309,6.0,7.0,71,0.00,,,0.00,Wunderground v.1.15,2013-03-02 21:50:00,
2013-03-02 15:56:00,31.2,23.2,30.17,NW,323,5.0,7.0,72,0.00,,,0.00,Wunderground v.1.15,2013-03-02 21:56:00,
2013-03-02 16:01:00,30.7,21.7,30.17,NW,321,6.0,7.0,69,0.00,,,0.00,Wunderground v.1.15,2013-03-02 22:01:00,
2013-03-02 16:06:00,30.3,22.4,30.17,WNW,298,6.0,7.0,72,0.00,,,0.00,Wunderground v.1.15,2013-03-02 22:06:00,
2013-03-02 16:12:00,29.9,22.0,30.17,NNW,329,6.0,12.0,72,0.00,,,0.00,Wunderground v.1.15,2013-03-02 22:12:00,
2013-03-02 16:18:00,29.6,21.7,30.17,NW,321,6.0,12.0,72,0.00,,,0.00,Wunderground v.1.15,2013-03-02 22:18:00,
2013-03-02 16:23:00,29.6,21.3,30.17,NNW,328,5.0,5.0,71,0.00,,,0.00,Wunderground v.1.15,2013-03-02 22:23:00,
2013-03-02 16:29:00,29.7,21.4,30.17,NW,316,6.0,6.0,71,0.00,,,0.00,Wunderground v.1.15,2013-03-02 22:29:00,
2013-03-02 16:35:00,29.8,21.5,30.17,NW,313,5.0,6.0,71,0.00,,,0.00,Wunderground v.1.15,2013-03-02 22:35:00,
2013-03-02 16:41:00,29.8,21.9,30.17,NW,319,5.0,5.0,72,0.00,,,0.00,Wunderground v.1.15,2013-03-02 22:41:00,